Hourly Data Report for May 04, 2012

All times are specified in Local Standard Time (LST). Add 1 hour to adjust for Daylight Saving Time where and when it is observed.

HAMILTON A
ONTARIO

43°10'25.000" N
79°56'06.000" W
237.70 m
6153193
71263
YHM

Download Data

Hourly Data (May 2012)
Hourly Data Report for May 4, 2012
Temp Definition
°C
Dew Point Temp Definition
°C
Rel Hum Definition
%
Wind Dir Definition
10's deg

Wind Spd Definition
km/h
Visibility Definition
km
Stn Press Definition
kPa
Hmdx Definition


Wind Chill Definition


Weather Definition


TIME
00:00 Legend Double Dagger 15.4 14.9 97 21 17 10.0 98.50     Rain Showers
01:00 Legend Double Dagger 16.7 15.6 93 23 16 10.0 98.48     Rain Showers
02:00 Legend Double Dagger 16.1 15.5 96 18 17 10.0 98.53     Rain Showers
03:00 Legend Double Dagger 14.6 14.5 99 20 9 4.8 98.46     Fog
04:00 Legend Double Dagger 14.8 14.8 100 19 11 4.8 98.53     Fog
05:00 Legend Double Dagger 15.1 15.1 100 23 10 4.8 98.55     Fog
06:00 Legend Double Dagger 16.4 16.2 99 25 12 8.1 98.56     Fog
07:00 Legend Double Dagger 17.0 16.5 97 25 8 8.1 98.61     Fog
08:00 Legend Double Dagger 18.1 16.8 92 29 8 10.0 98.59     LegendNANA
09:00 Legend Double Dagger 18.4 16.8 90 23 11 10.0 98.60     LegendNANA
10:00 Legend Double Dagger 19.7 17.7 88 22 20 10.0 98.64     Mostly Cloudy
11:00 Legend Double Dagger 21.2 17.5 79 22 20 10.0 98.64 27   LegendNANA
12:00 Legend Double Dagger 22.2 17.2 73 23 19 10.0 98.65 28   LegendNANA
13:00 Legend Double Dagger 23.0 17.8 72 23 19 10.0 98.59 29   Cloudy
14:00 Legend Double Dagger 21.9 17.6 76 25 18 10.0 98.61 28   LegendNANA
15:00 Legend Double Dagger 21.3 17.6 79 27 16 10.0 98.59 27   LegendNANA
16:00 Legend Double Dagger 22.9 17.7 72 30 13 9.7 98.58 29   Haze
17:00 Legend Double Dagger 19.0 16.1 83 4 22 6.4 98.59     Rain Showers,Haze
18:00 Legend Double Dagger 18.0 16.5 91 5 14 10.0 98.62     Rain Showers
19:00 Legend Double Dagger 17.1 15.3 89 7 12 10.0 98.64     Mostly Cloudy
20:00 Legend Double Dagger 16.0 13.7 86 4 21 10.0 98.70     LegendNANA
21:00 Legend Double Dagger 14.6 12.3 86 2 24 10.0 98.72     LegendNANA
22:00 Legend Double Dagger 14.1 11.8 86 1 21 10.0 98.77     Mainly Clear
23:00 Legend Double Dagger 13.7 11.4 86 2 21 10.0 98.79     LegendNANA

Notes on Data Quality.

Legend

  • E = Estimated
  • M = Missing
  • NA = Not Available
  • ‡ = Partner data that is not subject to review by the National Climate Archives
Date modified: